Regional Weather Roundup
Issued by NWS

Home | Current Version | Previous Version | Text Only | Print | Product List | Glossary Off
Versions: 1 2 3 4 5 6 7 8 9 10 11 12 13 14 15 16 17 18 19 20 21 22 23 24 25 26 27 28 29 30 31 32 33 34 35 36 37 38 39 40 41 42 43 44 45 46 47 48 49 50

922
ASUS43 KDTX 042301
RWRMI
MICHIGAN HOURLY REGIONAL WEATHER ROUNDUP
NATIONAL WEATHER SERVICE DETROIT/PONTIAC MI
600 PM EST SUN DEC 04 2016

NOTE: "FAIR" INDICATES FEW OR NO CLOUDS BELOW 12,000 FEET WITH NO
SIGNIFICANT WEATHER AND/OR OBSTRUCTION TO VISIBILITY.

MIZ047>049-052>055-059>063-066>070-074>076-081>083-050000-
SOUTHEAST LOWER MICHIGAN

CITY           SKY/WX    TMP DP  RH WIND       PRES   REMARKS
ADRIAN         LGT SNOW  33  32  96 E14       29.93F FOG     WCI  23
ALMA           LGT SNOW  33  32  98 SE6       29.93F WCI  27
ANN ARBOR      CLOUDY    36  28  73 E10       29.95F WCI  28
BAD AXE        CLOUDY    35  30  81 SE7       29.98F WCI  29
CARO           LGT SNOW  34  31  90 SE10      29.96F WCI  26
DETROIT CITY   CLOUDY    37  30  75 E6        29.98F WCI  32
DETROIT        CLOUDY    37  28  70 E6        29.99F WCI  32
FLINT          CLOUDY    36  27  69 E12       29.94F WCI  28
GROSSE ILE     CLOUDY    37  29  72 E5        29.98F WCI  34
HILLSDALE      LGT SNOW  32  32 100 E15G22    29.88F VSB 1   WCI  22
HOWELL         LGT SNOW  35  29  78 SE15G21   29.92F WCI  25

CITY           SKY/WX    TMP DP  RH WIND       PRES   REMARKS
JACKSON        LGT SNOW  33  30  88 SE13      29.90F FOG     WCI  24
LAMBERTVILLE   LGT SNOW  38  31  76 E3        29.97F
LANSING        LGT SNOW  33  30  88 SE8       29.92F FOG     WCI  26
LAPEER         NOT AVBL
MASON          LGT SNOW  32  32  98 SE6       29.92F WCI  27
MONROE         CLOUDY    38  30  72 E8        29.96F WCI  32
MT. CLEMENS    CLOUDY    38  30  71 SE9       29.97F WCI  32
PONTIAC        FLURRIES  36  27  69 E10       29.94F WCI  28
PORT HOPE        N/A     33  32  96 SE7       29.98F WCI  27
PORT HURON     CLOUDY    37  30  75 CALM      30.02F
TRI CITIES     LGT SNOW  34  32  92 SE10      29.95F FOG     WCI  26
MIDLAND        LGT SNOW  33  32  96 E5        29.95F WCI  28
TROY           CLOUDY    38  27  64 E7        29.99F WCI  33
SAGINAW HB     LGT SNOW  34  30  86 SE12      29.96F WCI  25
$$
MIZ043>046-050>051-056>058-064>065-071>073-077>080-050000-
SOUTHWEST LOWER MICHIGAN

CITY           SKY/WX    TMP DP  RH WIND       PRES   REMARKS
BATTLE CREEK   LGT SNOW  33  32  96 E9        29.89F VSB 1   WCI  25
BENTON HARBOR  SNOW      33  31  92 E5        29.87F VSB 1/2 WCI  29
BIG RAPIDS     LGT SNOW  33  31  92 SE7       29.88F VSB 3/4 WCI  26
COLDWATER      LGT SNOW  33  32  98 E9        29.88F VSB 1   WCI  25
FREMONT        LGT SNOW  32  31  95 SE5       29.89F WCI  27
HOLLAND        LGT SNOW  33  31  92 E8        29.88F FOG     WCI  26
GRAND RAPIDS   LGT SNOW  32  30  92 E10       29.89F VSB 3/4 WCI  24
IONIA          LGT SNOW  32  31  96 E9        29.90F WCI  24
KALAMAZOO      SNOW      33  31  92 SE6       29.88F VSB 1/2 WCI  28
LUDINGTON      LGT SNOW  32  32 100 SE3       29.90F
MARSHALL       LGT SNOW  33  32  98 E6        29.89F WCI  27
MOUNT PLEASANT LGT SNOW  32  32  99 E7        29.92F WCI  26
MUSKEGON       LGT SNOW  33  32  96 SE7       29.89F FOG     WCI  27
SOUTH HAVEN    LGT SNOW  34  33  98 E3        29.87F
$$
MIZ016>042-050000-
NORTHERN LOWER MICHIGAN

CITY           SKY/WX    TMP DP  RH WIND       PRES   REMARKS
ALPENA         LGT SNOW  33  31  92 SE5       29.97F FOG     WCI  29
BEAVER ISLAND  LGT SNOW  32  32  99 SE5       29.92F WCI  28
BELLAIRE       LGT SNOW  32  32  99 CALM      29.93F
CADILLAC       LGT SNOW  31  29  94 SE7       29.88F WCI  24
CHARLEVOIX     LGT SNOW  32  32 100 CALM      29.95F
FRANKFORT      LGT SNOW  32  32 100 SE3       29.91F
GAYLORD        LGT SNOW  31  27  85 SE5       29.89F FOG     WCI  26
GRAYLING       LGT SNOW  31  30  95 SE5       29.91F WCI  27
HARBOR SPRINGS LGT SNOW  32  31  98 CALM      29.93F
HOUGHTON LAKE  LGT SNOW  31  29  92 SE8       29.91F FOG     WCI  23
MANISTEE       LGT SNOW  32  31  96 CALM      29.90F FOG
OSCODA         LGT SNOW  34  32  93 MISG      29.97F
PELLSTON       LGT SNOW  32  29  88 SE6       29.93F FOG     WCI  26
ROGERS CITY    LGT SNOW  33  32  95 S5        29.97F WCI  28
TRAVERSE CITY  LGT SNOW  33  32  96 CALM      29.91F VSB 3/4
$$
MIZ007>008-015-050000-
EASTERN UPPER MICHIGAN

CITY           SKY/WX    TMP DP  RH WIND       PRES   REMARKS
KINROSS        LGT SNOW  32  31  96 SE9       29.94F FOG     WCI  24
MACKINAC ISLAN LGT SNOW  32  32 100 S8        29.94F WCI  25
NEWBERRY       LGT SNOW  32  31  97 SE7       29.91F WCI  25
S. S. MARIE    LGT SNOW  31  30  96 E10G16    29.93F VSB 3/4 WCI  22
MUNISING         N/A     32  31  96 S3        29.87F
$$
MIZ004>006-011>014-085-050000-
CENTRAL UPPER MICHIGAN

CITY           SKY/WX    TMP DP  RH WIND       PRES   REMARKS
MANISTIQUE     MIX PCPN  34  32  92 S7G16     29.89F WCI  28
ESCANABA       LGT SNOW  32  31  96 W3        29.88F FOG
MENOMINEE      LGT SNOW  32  30  93 S3        29.89F FOG
$$
MIZ001>003-009>011-084-050000-
WESTERN UPPER MICHIGAN

CITY           SKY/WX    TMP DP  RH WIND       PRES   REMARKS
IRON MOUNTAIN  LGT SNOW  30  26  85 SE6       29.83F FOG     WCI  24
HOUGHTON       LGT SNOW  30  28  92 SE9       29.80F FOG     WCI  22
COPPER HARBOR    N/A     32  30  92 SW8       29.83F WCI  25
IRONWOOD       LGT SNOW  30  28  92 VRB6      29.75S FOG     WCI  24
$$

ABBREVIATIONS USED IN REMARKS
   TC - TEMPERATURE IN CELSIUS
  WCI - WIND CHILL INDEX
   HX - HEAT INDEX
  VSB - VISIBILITY





USA.gov is the U.S. government's official web portal to all federal, state and local government web resources and services.